Date,TemperatureHighF,TemperatureAvgF,TemperatureLowF,DewpointHighF,DewpointAvgF,DewpointLowF,HumidityHigh,HumidityAvg,HumidityLow,PressureMaxIn,PressureMinIn,WindSpeedMaxMPH,WindSpeedAvgMPH,GustSpeedMaxMPH,PrecipitationSumIn
2013-1-1,44.6,41.8,38.8,38.4,33.2,27.7,85,71,64,29.68,29.59,13,5,13,0.28
2013-1-2,41.7,38.2,34.0,27.7,26.3,24.7,76,62,52,29.74,29.65,10,2,10,0.00
2013-1-3,48.6,42.8,32.7,28.3,25.3,23.6,78,52,38,29.85,29.80,8,3,8,0.00
2013-1-4,50.9,46.7,41.0,29.9,27.1,25.4,64,47,39,29.91,29.77,9,2,9,0.00
2013-1-5,51.8,45.8,39.9,39.3,35.6,33.6,91,68,51,29.77,29.62,13,2,13,0.00
2013-1-6,55.6,48.5,37.0,34.4,27.0,23.8,81,45,30,29.80,29.71,11,3,11,0.00
2013-1-7,55.8,47.8,32.5,31.9,28.5,22.6,67,48,37,29.74,29.53,13,3,13,0.00
2013-1-8,49.3,48.1,46.9,48.7,45.1,34.0,98,90,60,29.50,29.35,11,4,11,1.51
2013-1-9,56.3,53.3,49.3,55.8,52.7,48.7,98,98,96,29.50,29.35,20,6,20,1.34
2013-1-10,60.1,56.4,51.3,57.4,48.0,42.1,98,75,53,29.38,29.32,13,5,13,0.04
2013-1-11,69.6,60.7,48.0,62.4,50.3,43.0,91,70,44,29.35,29.23,13,7,13,0.00
2013-1-12,69.6,53.8,38.1,69.0,49.7,31.7,98,86,72,29.32,29.09,15,6,17,1.02
2013-1-13,42.8,37.5,33.8,22.9,20.5,16.7,63,51,41,29.62,29.53,17,7,17,0.00
2013-1-14,43.7,37.5,29.5,23.6,19.4,15.0,58,48,41,29.74,29.62,10,6,10,0.00
2013-1-15,37.4,35.2,30.7,28.4,25.7,20.4,89,69,54,29.62,29.56,15,6,15,0.08
2013-1-16,47.5,40.5,28.6,23.7,19.5,16.2,66,44,34,29.71,29.56,10,4,10,0.00
2013-1-17,59.2,51.8,37.0,32.0,28.7,23.2,61,42,34,29.85,29.74,13,4,13,0.00
2013-1-18,60.6,52.0,35.4,33.5,31.5,28.3,78,47,35,29.91,29.71,16,4,16,0.00
2013-1-19,64.6,55.6,42.1,43.0,41.3,37.5,88,60,43,29.68,29.56,15,5,15,0.00
2013-1-20,67.1,58.5,40.8,46.4,40.6,36.7,92,54,36,29.62,29.47,13,5,13,0.00
2013-1-21,56.8,51.9,42.3,32.6,29.1,21.4,49,41,38,29.71,29.62,13,4,13,0.00
2013-1-22,63.5,58.4,48.4,44.4,41.1,31.4,71,53,45,29.71,29.59,12,4,12,0.00
2013-1-23,72.1,68.3,59.9,53.2,51.4,49.2,75,55,45,29.68,29.53,15,6,15,0.00
2013-1-24,74.8,67.3,55.4,59.7,56.8,53.0,98,72,47,29.59,29.44,15,5,15,0.00
2013-1-25,54.0,52.0,50.0,45.7,40.8,37.0,84,66,60,29.62,29.53,13,4,13,0.00
2013-1-26,52.0,50.9,48.4,49.7,48.6,47.3,96,92,86,29.62,29.53,8,2,8,0.00
2013-1-27,73.6,67.7,58.5,62.9,58.4,54.8,98,74,54,29.50,29.32,23,8,23,0.00
2013-1-28,76.5,72.7,67.6,64.6,61.8,58.4,86,70,55,29.41,29.26,21,8,21,0.00
2013-1-29,77.2,68.8,57.2,65.3,59.5,42.0,85,73,42,29.15,28.88,28,9,28,0.16
2013-1-30,53.8,49.3,44.1,32.4,25.1,20.6,58,39,31,29.53,29.18,22,9,22,0.16
2013-1-31,67.1,54.3,35.1,29.7,24.7,19.3,57,34,22,29.62,29.53,16,4,16,0.00
2013-2-1,59.4,48.4,31.6,31.7,25.0,13.7,50,40,35,29.80,29.59,11,5,11,0.00
2013-2-2,66.2,61.7,46.9,44.2,36.1,27.6,78,41,27,29.65,29.62,12,4,12,0.00
2013-2-3,68.5,64.4,52.5,34.9,29.5,25.4,51,27,23,29.71,29.44,10,5,10,0.00
2013-2-4,71.2,64.6,55.9,54.1,49.9,37.0,79,59,48,29.32,29.21,16,6,16,0.00
2013-2-5,65.7,64.8,60.1,60.0,59.1,57.9,94,82,78,29.41,29.35,9,3,9,0.00
2013-2-6,73.0,69.6,63.0,57.6,55.4,52.2,82,61,48,29.41,29.26,12,6,12,0.00
2013-2-7,78.8,69.2,60.1,59.2,50.3,36.8,93,56,25,29.44,29.26,15,7,15,0.00
2013-2-8,63.0,56.8,44.8,33.9,29.6,26.1,64,37,26,29.65,29.53,12,4,12,0.00
2013-2-9,60.4,52.7,49.3,59.9,48.4,40.3,98,86,71,29.50,29.18,18,7,18,0.00
2013-2-10,67.6,62.0,53.8,61.5,40.5,24.3,98,54,23,29.32,29.12,19,6,19,0.71
2013-2-11,54.5,52.1,50.0,35.4,29.9,26.5,54,43,36,29.56,29.47,15,4,15,0.00
2013-2-12,50.9,49.2,47.5,47.1,46.2,45.0,94,90,82,29.35,29.26,8,3,8,0.16
2013-2-13,55.4,46.8,40.3,34.3,32.4,27.6,78,59,35,29.56,29.44,10,3,10,0.16
2013-2-14,67.1,55.7,37.6,39.3,33.6,28.1,85,48,26,29.50,29.41,8,2,8,0.00
2013-2-15,53.2,48.1,40.8,32.9,24.5,16.9,59,41,28,29.80,29.65,17,5,17,0.00
2013-2-16,54.9,51.1,34.2,26.8,24.3,21.4,65,35,30,29.83,29.59,9,2,9,0.00
2013-2-17,68.5,64.9,51.8,35.3,32.2,29.5,43,30,24,29.53,29.32,24,10,24,0.00
2013-2-18,78.1,66.8,56.5,54.9,41.0,29.9,75,42,24,29.44,29.18,25,11,25,0.00
2013-2-19,60.6,54.9,42.1,26.5,24.2,23.1,50,31,25,29.74,29.56,10,5,10,0.00
2013-2-20,46.8,45.0,41.5,40.7,35.9,31.7,83,71,59,29.59,29.32,16,7,16,0.04
2013-2-21,48.6,47.7,46.4,47.2,45.4,42.8,95,92,87,29.15,29.03,18,6,18,0.04
2013-2-24,69.3,67.9,63.9,38.8,36.5,33.7,34,31,28,29.21,29.12,17,8,17,0.00
2013-2-25,63.3,54.2,41.5,49.5,36.0,25.7,76,52,28,28.97,28.88,15,7,15,0.00
2013-2-26,57.9,52.0,41.2,30.5,29.1,28.0,60,42,35,29.29,29.18,17,6,17,0.00
2013-2-27,57.9,50.6,38.5,30.4,25.4,18.5,69,40,27,29.56,29.41,17,8,17,0.00
2013-2-28,57.9,49.4,36.9,28.4,25.0,20.7,63,41,27,29.68,29.62,17,7,17,0.00
2013-3-1,57.2,49.6,35.4,28.3,26.3,22.6,64,41,31,29.71,29.62,13,4,13,0.00
2013-3-2,53.2,47.6,35.8,22.6,20.1,15.6,45,34,29,29.83,29.68,14,6,14,0.00
2013-3-3,69.1,61.3,36.9,32.5,28.9,19.9,52,30,24,29.59,29.23,23,9,23,0.00
2013-3-4,84.0,70.4,56.1,45.6,41.8,37.1,62,39,19,29.15,29.00,22,9,22,0.00
2013-3-5,57.7,53.8,46.0,27.0,22.4,17.4,47,30,25,29.74,29.59,22,8,22,0.00
2013-3-6,60.3,52.9,36.3,24.7,22.3,18.7,50,31,22,29.85,29.62,10,3,10,0.00
2013-3-7,70.0,61.6,43.3,32.3,27.9,20.1,40,29,23,29.65,29.50,21,8,21,0.00
2013-3-8,62.6,59.8,54.5,54.8,50.4,45.2,79,71,67,29.59,29.44,10,5,10,0.00
2013-3-9,68.5,66.3,61.2,66.3,61.2,56.0,96,84,76,29.29,29.06,20,8,20,0.00
2013-3-10,57.9,53.0,47.5,45.1,30.4,24.7,69,42,37,29.44,29.23,25,10,25,0.31
2013-3-11,58.6,50.3,35.8,28.7,23.5,21.1,73,37,25,29.53,29.44,12,5,12,0.00
2013-3-12,66.4,59.4,40.1,28.8,27.2,23.9,56,30,23,29.62,29.50,11,7,11,0.00
2013-3-13,69.8,63.5,47.3,33.2,31.4,29.7,56,31,24,29.85,29.71,11,4,11,0.00
2013-3-14,77.0,67.5,48.7,42.4,38.3,30.2,52,35,26,29.77,29.59,19,7,19,0.00
2013-3-15,81.1,72.0,55.2,51.2,44.3,38.1,83,41,23,29.56,29.32,23,7,23,0.00
2013-3-16,80.8,75.5,59.9,54.4,52.1,47.6,82,46,35,29.26,29.12,25,11,25,0.00
2013-3-17,76.3,71.9,66.4,59.7,52.6,45.3,79,52,36,29.21,29.09,15,6,15,0.00
2013-3-18,71.1,67.6,61.0,64.6,46.8,37.3,96,51,34,29.32,29.06,17,6,17,0.00
2013-3-19,69.6,61.9,48.7,39.4,36.4,30.8,65,40,30,29.50,29.38,13,4,13,0.00
2013-3-20,68.7,61.6,48.7,35.8,29.8,24.8,51,31,23,29.71,29.50,13,4,13,0.00
2013-3-21,70.2,63.0,52.2,50.5,37.7,26.9,57,40,32,29.32,29.00,22,8,22,0.00
2013-3-22,66.4,52.4,48.6,60.5,44.6,39.5,89,75,51,29.21,29.03,16,6,16,0.00
2013-3-23,57.6,54.1,48.9,52.2,47.7,46.2,95,79,68,29.26,29.09,12,3,12,0.04
2013-3-24,53.2,48.7,39.7,27.0,25.8,23.1,54,41,36,29.53,29.44,25,10,25,0.04
2013-3-25,55.6,52.0,40.1,24.0,20.8,16.6,44,29,26,29.77,29.68,20,8,20,0.00
2013-3-26,57.9,51.5,34.3,24.7,21.6,15.4,49,32,26,29.91,29.71,11,2,11,0.00
2013-3-27,70.0,58.8,39.7,36.3,29.3,20.7,46,34,25,29.71,29.50,11,7,11,0.00
2013-3-28,72.1,65.5,52.3,53.5,49.8,44.3,75,58,48,29.62,29.50,17,7,17,0.00
2013-3-29,78.4,73.0,63.1,56.6,53.5,51.9,74,51,42,29.59,29.47,10,7,10,0.00
2013-3-30,80.1,72.8,58.6,62.9,59.3,56.3,92,64,47,29.44,29.29,11,5,18,0.98
2013-3-31,74.3,69.3,60.8,63.1,52.8,45.5,90,58,38,29.38,29.21,17,4,17,0.12
2013-4-1,80.2,76.4,66.4,46.9,45.0,43.2,46,33,30,29.47,29.35,10,4,232,0.12
2013-4-2,70.9,68.2,66.4,63.2,60.4,58.2,83,76,67,29.41,29.32,13,5,13,0.00
2013-4-3,52.2,49.5,47.3,48.2,45.0,42.4,93,84,70,29.53,29.38,17,4,17,0.43
2013-4-4,53.2,48.3,44.8,41.2,38.8,36.6,86,70,55,29.62,29.53,14,5,14,0.12
2013-4-5,70.3,62.1,42.6,43.8,40.8,37.8,86,48,33,29.65,29.44,9,3,9,0.00
2013-4-6,75.7,71.8,57.2,54.2,48.7,40.7,65,44,34,29.38,29.26,23,9,23,0.00
2013-4-7,73.6,72.0,68.5,58.8,57.8,56.9,69,61,57,29.32,29.18,18,8,18,0.00
2013-4-8,73.0,73.0,73.0,61.0,61.0,61.0,66,66,66,29.09,29.09,9,5,9,0.00
2013-4-9,85.3,77.3,69.1,64.4,60.7,57.4,85,58,40,29.12,29.06,26,8,26,0.00
2013-4-10,52.0,45.3,42.4,44.0,39.7,36.1,89,81,69,29.35,29.18,19,5,19,0.28
2013-4-11,61.2,54.0,41.4,32.8,30.2,26.9,57,41,34,29.38,29.23,9,3,9,0.28
2013-4-12,77.7,67.3,46.0,44.2,40.3,35.8,76,41,24,29.41,29.29,11,3,11,0.00
2013-4-13,79.3,74.3,57.0,46.8,44.6,43.1,62,36,30,29.41,29.21,15,8,15,0.00
2013-4-14,80.8,74.4,58.5,61.8,57.1,50.8,77,56,43,29.15,28.97,18,8,18,0.00
2013-4-15,85.3,76.7,69.6,66.2,63.3,59.8,89,66,43,29.18,29.06,18,7,18,0.00
2013-4-16,88.2,80.9,71.6,65.8,62.1,59.8,74,54,39,29.32,29.21,17,7,17,0.00
2013-4-17,86.5,79.3,74.3,69.5,65.5,61.9,84,64,46,29.29,29.06,27,10,27,0.00
2013-4-18,75.9,57.5,48.4,71.4,46.4,30.2,89,68,40,29.50,28.97,34,8,34,1.38
2013-4-19,63.1,57.6,42.8,33.0,28.1,24.1,63,33,25,29.68,29.56,20,4,20,0.00
2013-4-20,73.0,66.6,48.4,39.7,33.0,28.5,50,29,24,29.62,29.44,20,6,20,0.00
2013-4-21,74.1,67.4,51.3,46.8,44.2,41.1,69,44,35,29.62,29.47,16,5,16,0.00
2013-4-22,78.1,69.8,56.5,54.8,50.1,44.0,64,51,40,29.50,29.26,15,6,15,0.00
2013-4-23,66.9,55.9,47.3,61.8,48.5,37.4,89,76,67,29.50,29.29,17,6,17,0.00
2013-4-24,61.3,49.7,40.6,33.5,31.3,29.2,73,51,34,29.71,29.62,13,4,13,0.04
2013-4-25,74.5,65.4,52.0,42.3,37.5,31.1,49,37,28,29.74,29.59,11,4,11,0.00
2013-4-26,76.8,68.4,60.4,64.4,54.7,44.6,69,62,54,29.59,29.38,15,6,15,0.00
2013-4-27,75.2,72.9,68.9,58.5,53.0,49.6,68,50,43,29.53,29.41,13,4,13,0.00
2013-4-28,81.0,73.0,57.6,62.0,58.3,53.5,87,62,47,29.44,29.29,11,3,11,0.00
2013-4-29,88.0,79.4,63.5,62.9,57.2,50.9,85,50,31,29.32,29.21,16,6,16,0.00
2013-4-30,82.2,74.7,63.3,63.9,59.4,53.9,90,61,40,29.26,29.18,17,5,17,0.00
2013-5-1,84.6,76.3,66.6,64.7,61.4,55.6,87,62,41,29.32,29.21,13,5,13,0.00
2013-5-2,65.8,52.6,45.5,56.6,41.8,34.8,84,67,57,29.71,29.44,23,8,23,0.00
2013-5-3,67.6,58.0,41.4,31.9,29.4,25.1,65,37,23,29.68,29.44,18,7,18,0.00
2013-5-4,74.1,71.4,57.2,37.0,32.7,29.0,44,24,22,29.38,29.29,20,7,20,0.00
2013-5-5,68.7,62.7,51.4,42.1,37.9,33.9,53,40,35,29.56,29.44,13,5,13,0.00
2013-5-6,77.5,70.4,52.9,51.0,47.0,44.9,81,46,32,29.53,29.41,8,2,8,0.00
2013-5-7,85.6,75.6,59.7,52.0,49.5,46.8,72,43,28,29.47,29.35,9,1,9,0.00
2013-5-8,86.0,77.1,63.9,55.2,51.9,49.3,68,44,29,29.41,29.29,15,6,15,0.00
2013-5-9,71.6,70.2,68.5,67.3,65.0,60.1,92,84,75,29.35,29.26,11,3,11,0.31
2013-5-10,81.0,73.9,66.6,66.3,62.9,54.3,95,71,47,29.41,29.29,8,1,8,0.31
2013-5-11,80.2,75.7,64.6,52.6,46.4,40.5,65,36,26,29.53,29.50,13,6,13,0.00
2013-5-12,78.6,73.9,60.6,42.4,36.6,32.3,42,26,22,29.68,29.56,14,3,14,0.00
2013-5-13,86.9,78.7,58.3,51.1,44.6,38.9,52,31,23,29.65,29.53,12,5,12,0.00
2013-5-14,89.1,79.7,63.0,58.1,53.1,48.0,77,43,28,29.56,29.38,17,5,17,0.00
2013-5-15,78.6,73.2,70.2,69.6,65.4,63.6,94,77,62,29.44,29.21,19,7,19,0.35
2013-5-16,80.6,71.5,64.4,69.2,65.6,62.6,94,83,65,29.23,29.18,13,4,13,2.52
2013-5-17,91.0,84.9,73.2,73.4,70.5,67.4,95,64,47,29.26,29.21,17,5,17,0.00
2013-5-18,91.4,86.9,74.7,70.5,68.2,66.1,80,55,44,29.32,29.18,17,7,17,0.00
2013-5-19,90.1,84.5,72.5,66.8,65.1,62.5,80,54,42,29.26,29.09,25,8,25,0.00
2013-5-20,90.0,81.6,75.0,69.1,67.1,64.8,78,63,44,29.23,29.06,22,7,22,0.00
2013-5-21,85.5,74.4,65.5,69.9,65.9,60.9,89,76,58,29.23,29.12,17,5,17,1.42
2013-5-22,83.7,75.4,59.2,63.0,56.8,49.5,89,56,31,29.35,29.26,8,1,8,1.42
2013-5-23,87.1,80.4,71.1,73.0,69.4,66.8,95,70,55,29.47,29.32,11,3,11,0.00
2013-5-24,87.8,81.1,74.3,72.1,69.5,59.5,87,69,47,29.56,29.44,13,4,13,0.00
2013-5-25,85.8,76.9,70.5,72.1,68.2,61.2,92,76,52,29.56,29.44,22,4,22,0.20
2013-5-26,87.4,82.0,73.2,74.1,68.5,64.0,95,65,47,29.50,29.35,15,6,15,0.20
2013-5-29,75.2,74.6,72.1,71.9,70.4,66.3,90,87,81,29.18,29.15,15,6,15,0.35
2013-5-31,90.0,87.1,82.9,70.2,68.3,66.1,64,54,46,29.18,29.09,18,6,18,0.00
2013-6-1,87.4,82.1,77.9,75.3,70.5,66.8,83,68,57,29.32,29.23,15,5,15,0.12
2013-6-2,85.6,80.7,68.9,58.5,51.4,42.9,69,37,25,29.50,29.35,10,5,10,0.00
2013-6-3,88.5,80.0,65.1,59.8,56.2,49.8,75,47,30,29.41,29.26,10,2,10,0.00
2013-6-4,79.9,73.8,70.3,65.1,62.7,61.3,74,69,60,29.41,29.26,12,4,12,0.00
2013-6-5,91.0,84.5,74.1,69.8,65.9,62.0,80,55,41,29.35,29.18,17,3,17,0.00
2013-6-6,79.3,74.4,70.3,71.4,66.2,61.3,91,76,59,29.32,29.23,15,3,15,0.75
2013-6-7,84.2,75.1,64.9,60.7,54.8,48.0,82,52,30,29.41,29.29,9,3,9,0.00
2013-6-8,89.2,85.9,74.1,60.0,56.5,51.6,55,37,31,29.35,29.21,13,5,13,0.00
2013-6-9,87.1,79.0,70.5,72.6,66.8,61.1,92,69,42,29.35,29.26,14,3,14,0.39
2013-6-10,97.2,89.3,71.8,70.6,63.1,57.1,86,46,27,29.38,29.32,11,5,11,0.39
2013-6-11,94.5,88.5,75.6,73.0,67.8,63.0,86,53,39,29.44,29.32,16,6,17,0.00
2013-6-12,94.3,87.7,76.3,72.9,67.9,62.4,86,55,38,29.47,29.35,13,5,13,0.00
2013-6-13,97.7,90.8,76.1,71.3,67.6,61.7,78,49,36,29.47,29.32,10,3,10,0.00
2013-6-14,98.1,91.6,77.2,71.1,66.6,61.7,71,45,34,29.41,29.29,8,1,8,0.00
2013-6-15,91.9,86.9,77.4,74.7,70.6,65.3,78,59,49,29.41,29.29,13,3,13,0.12
2013-6-16,96.6,91.0,77.9,72.6,67.2,61.2,82,47,36,29.44,29.29,10,4,10,0.00
2013-6-17,91.2,82.4,72.1,76.6,71.1,63.2,86,70,52,29.44,29.26,22,3,22,0.39
2013-6-18,83.5,77.6,74.1,68.5,67.5,65.7,80,71,60,29.41,29.32,11,4,11,0.39
2013-6-19,92.1,85.7,72.9,74.9,70.7,62.1,93,63,44,29.41,29.35,11,3,11,0.00
2013-6-20,95.2,88.6,77.2,72.0,66.5,59.3,83,51,32,29.47,29.35,17,5,17,0.00
2013-6-21,95.5,92.3,82.0,71.5,64.5,57.5,70,41,30,29.50,29.38,17,6,17,0.00
2013-6-22,95.7,91.5,77.4,72.0,64.6,60.3,77,43,33,29.47,29.29,15,6,15,0.00
2013-6-23,95.5,90.4,77.2,71.8,65.6,56.7,79,46,30,29.41,29.29,15,7,15,0.00
2013-6-24,96.1,90.2,77.0,71.3,65.3,59.3,78,46,32,29.44,29.32,16,7,16,0.00
2013-6-25,97.0,91.6,78.4,71.4,63.9,57.9,76,43,29,29.41,29.23,18,7,18,0.00
2013-6-26,97.0,89.6,77.5,70.3,66.9,62.1,78,50,35,29.38,29.26,13,6,13,0.00
2013-6-27,79.7,79.3,79.2,70.2,69.2,68.3,74,71,69,29.41,29.38,10,5,10,0.00
2013-6-29,97.3,93.6,89.4,55.8,52.6,47.8,29,25,20,29.26,29.21,15,5,15,0.00
2013-6-30,92.7,87.9,81.5,59.9,54.3,51.6,40,32,27,29.35,29.32,15,5,15,0.00
2013-7-1,87.6,82.8,71.1,57.9,54.3,50.8,59,38,30,29.44,29.38,11,4,11,0.00
2013-7-2,89.2,83.2,69.8,54.7,49.8,43.1,54,33,24,29.50,29.41,10,3,10,0.00
2013-7-3,91.9,84.0,66.9,61.7,50.9,42.8,76,35,21,29.47,29.41,9,1,9,0.00
2013-7-4,95.5,88.9,73.9,64.5,55.4,47.2,62,34,22,29.44,29.32,10,3,10,0.00
2013-7-5,96.8,92.0,75.7,63.0,58.0,53.6,62,33,26,29.41,29.26,10,3,10,0.00
2013-7-6,97.2,92.2,78.6,65.9,58.4,51.1,60,33,24,29.38,29.26,15,4,15,0.00
2013-7-7,98.4,93.7,77.2,70.5,63.1,57.6,69,38,28,29.41,29.32,15,4,15,0.00
2013-7-8,97.2,88.9,77.5,71.4,67.4,62.5,77,51,35,29.50,29.41,13,5,13,0.00
2013-7-9,97.5,88.9,76.3,72.3,64.6,55.3,86,49,26,29.53,29.38,13,5,13,0.00
2013-7-10,100.8,92.7,81.1,71.3,65.6,56.4,68,44,26,29.47,29.32,10,3,10,0.00
2013-7-11,101.3,91.0,81.0,74.4,67.3,60.5,66,48,27,29.38,29.29,26,3,29,0.00
2013-7-12,99.3,91.6,76.5,71.3,66.1,59.8,80,46,28,29.38,29.29,11,3,11,0.00
2013-7-13,98.8,93.3,79.5,64.9,60.8,55.3,61,35,27,29.41,29.29,13,3,13,0.00
2013-7-14,75.4,73.7,72.5,69.8,68.2,64.3,87,83,69,29.44,29.32,11,2,11,0.16
2013-7-15,77.0,73.7,69.8,72.3,69.1,66.7,91,86,75,29.47,29.38,8,2,8,0.35
2013-7-16,84.2,77.5,73.6,74.7,72.2,68.4,90,84,62,29.65,29.50,14,2,14,1.06
2013-7-17,91.0,80.6,73.6,74.3,70.6,64.3,94,74,45,29.65,29.56,10,2,10,0.12
2013-7-18,95.4,86.8,74.1,72.0,67.1,62.5,84,54,38,29.59,29.41,8,1,8,0.12
2013-7-19,97.7,85.7,77.2,75.5,70.6,63.7,82,64,36,29.47,29.35,14,2,14,0.08
2013-7-20,96.3,89.6,75.4,73.6,68.6,62.4,87,52,34,29.38,29.26,12,2,12,0.00
2013-7-21,97.2,90.4,75.4,74.1,68.5,62.0,87,51,37,29.35,29.26,13,4,13,0.00
2013-7-22,97.3,89.2,78.1,73.7,69.0,61.9,86,55,34,29.38,29.26,13,5,13,0.00
2013-7-23,97.7,90.3,79.5,75.0,69.7,56.5,80,53,31,29.38,29.23,13,6,13,0.00
2013-7-24,94.1,84.8,77.2,71.3,67.6,63.5,72,58,37,29.47,29.32,15,3,15,0.00
2013-7-25,94.6,87.8,76.1,73.0,68.6,64.8,77,55,38,29.47,29.38,8,3,8,0.00
2013-7-26,95.0,84.9,79.7,76.2,69.6,66.2,85,62,40,29.44,29.26,11,4,11,0.08
2013-7-27,88.5,85.0,76.6,67.3,62.1,56.0,68,47,34,29.44,29.32,9,4,9,0.00
2013-7-28,92.8,87.6,71.6,68.5,64.2,60.2,82,48,35,29.41,29.29,11,3,11,0.00
2013-7-29,94.3,88.1,78.1,74.2,69.9,67.0,82,57,42,29.41,29.32,17,7,17,0.00
2013-7-30,97.7,90.4,78.8,71.1,67.2,60.3,76,49,32,29.50,29.35,13,4,13,0.00
2013-7-31,99.3,91.4,78.8,71.1,66.3,60.0,71,46,30,29.47,29.32,11,3,11,0.00
2013-8-1,100.4,91.1,81.3,71.8,66.9,59.2,73,48,27,29.41,29.29,6,1,6,0.00
2013-8-2,102.0,94.3,80.1,69.7,63.3,57.6,69,38,27,29.35,29.29,11,4,11,0.00
2013-8-3,99.9,96.0,82.4,69.5,62.5,57.3,63,35,27,29.41,29.35,10,4,10,0.00
2013-8-4,100.2,94.7,80.6,71.4,64.7,57.5,69,40,26,29.50,29.32,10,4,10,0.00
2013-8-5,101.3,93.0,81.3,69.3,61.9,56.0,65,38,26,29.41,29.26,11,5,13,0.00
2013-8-6,102.2,93.8,79.3,69.3,63.6,56.7,69,40,25,29.32,29.21,15,6,15,0.00
2013-8-7,101.8,94.0,79.9,70.6,64.1,56.1,71,40,26,29.32,29.18,15,5,15,0.00
2013-8-8,85.6,81.3,80.6,71.6,70.5,69.1,72,70,63,29.26,29.23,14,7,14,0.00
2013-8-9,101.1,93.7,80.2,70.0,63.2,58.2,65,40,25,29.35,29.26,11,3,11,0.00
2013-8-10,97.2,93.3,81.7,73.6,66.9,59.2,74,43,30,29.47,29.35,11,3,11,0.00
2013-8-12,99.0,96.4,91.6,66.6,61.4,58.4,36,32,29,29.41,29.32,11,4,11,0.00
2013-8-13,100.2,86.5,75.6,75.0,67.8,59.9,84,57,28,29.41,29.29,24,3,24,1.18
2013-8-14,90.1,83.5,77.4,75.2,72.3,67.0,92,70,51,29.44,29.32,14,2,14,0.24
2013-8-15,88.2,80.0,72.3,63.2,58.8,56.1,67,50,39,29.50,29.38,9,2,9,0.00
2013-8-16,87.1,82.2,72.9,68.1,60.5,56.2,84,49,37,29.44,29.38,11,2,11,0.04
2013-8-17,88.2,82.5,68.2,60.2,54.8,50.8,75,41,29,29.50,29.38,10,3,10,0.00
2013-8-18,90.5,82.4,69.6,65.5,59.8,52.8,74,50,29,29.53,29.41,11,3,11,0.00
2013-8-19,76.1,74.0,72.9,63.9,62.6,61.8,70,68,65,29.47,29.41,8,3,8,0.00
2013-8-20,96.4,87.4,73.6,64.4,58.2,52.4,63,40,26,29.47,29.38,9,2,9,0.00
2013-8-21,94.6,87.2,75.4,66.6,62.9,59.1,68,46,34,29.50,29.38,9,3,9,0.00
2013-8-22,97.9,92.0,76.8,70.9,64.6,58.6,70,43,30,29.50,29.35,10,2,10,0.00
2013-8-23,98.6,91.3,79.2,71.5,64.5,57.4,66,44,28,29.44,29.32,11,3,11,0.00
2013-8-24,98.8,93.5,81.7,70.4,62.3,57.0,63,37,26,29.47,29.38,11,4,11,0.00
2013-8-25,96.6,91.9,78.8,69.0,62.4,57.7,67,39,29,29.56,29.47,13,4,13,0.00
2013-8-26,95.9,89.5,77.2,68.9,61.4,54.3,74,42,27,29.59,29.47,17,5,17,0.00
2013-8-27,94.1,87.0,76.1,70.2,65.0,58.6,81,51,33,29.53,29.41,12,4,12,0.00
2013-8-28,97.0,89.7,74.3,70.0,62.3,56.6,76,43,28,29.53,29.41,8,2,8,0.00
2013-8-29,100.0,92.9,78.3,66.7,60.5,54.8,63,36,25,29.50,29.35,9,1,9,0.00
2013-8-30,100.9,93.0,78.8,66.8,60.4,55.5,62,36,25,29.41,29.29,7,2,7,0.00
2013-8-31,101.7,97.3,83.3,70.7,61.0,54.7,62,32,23,29.32,29.21,10,2,10,0.00
2013-9-1,101.5,95.3,80.2,67.9,62.1,56.5,62,35,25,29.29,29.18,8,2,8,0.00
2013-9-2,90.0,86.0,79.7,73.7,69.5,63.0,82,59,43,29.41,29.26,6,1,6,0.31
2013-9-3,95.5,87.6,76.1,64.5,61.0,54.7,63,43,28,29.41,29.29,9,2,9,0.00
2013-9-4,98.4,91.1,77.0,71.1,63.8,56.0,75,44,26,29.47,29.35,9,3,9,0.00
2013-9-5,95.7,90.2,77.7,70.2,65.3,54.1,70,46,27,29.53,29.41,8,2,8,0.00
2013-9-6,97.9,89.8,76.8,70.1,60.5,54.4,63,40,26,29.47,29.35,8,1,8,0.00
2013-9-7,97.2,92.2,79.0,70.2,61.2,53.8,69,38,27,29.47,29.32,11,3,11,0.00
2013-9-8,95.2,91.7,79.0,69.6,61.8,53.9,71,38,30,29.41,29.29,9,2,9,0.00
2013-9-9,93.6,86.3,74.7,67.1,62.0,56.0,76,47,30,29.44,29.32,11,3,11,0.00
2013-9-10,91.6,85.7,76.1,72.0,63.2,53.1,77,50,28,29.53,29.41,13,5,13,0.00
2013-9-11,94.8,86.6,74.1,73.3,64.5,61.3,75,49,34,29.53,29.41,15,2,15,0.00
2013-9-12,94.5,87.6,75.9,68.6,63.7,56.9,78,47,30,29.47,29.32,7,2,7,0.00
2013-9-14,91.8,88.7,75.7,59.0,56.6,53.1,47,34,30,29.38,29.29,13,4,13,0.00
2013-9-15,92.8,88.7,76.1,65.6,62.4,56.7,55,42,34,29.44,29.35,9,3,9,0.00
2013-9-16,95.2,87.5,76.5,71.1,62.0,54.2,72,45,28,29.50,29.38,9,2,9,0.00
2013-9-17,93.7,86.0,77.9,67.9,63.8,58.0,67,49,33,29.50,29.35,8,2,8,0.00
2013-9-18,94.5,87.1,77.9,69.2,61.9,54.5,66,46,27,29.44,29.29,15,4,15,0.00
2013-9-19,88.3,81.7,75.7,74.1,69.5,65.3,89,68,48,29.41,29.29,16,2,16,0.39
2013-9-20,76.3,74.8,73.4,73.7,71.1,66.5,95,89,76,29.35,29.26,13,3,13,1.26
2013-9-22,81.5,75.9,60.8,54.9,49.0,44.2,73,41,30,29.35,29.21,11,3,11,0.00
2013-9-23,83.7,76.2,61.0,52.4,50.5,48.1,71,43,30,29.29,29.18,13,3,13,0.00
2013-9-24,91.0,81.5,67.5,66.0,55.5,41.0,80,47,20,29.32,29.26,9,3,9,0.00
2013-9-25,88.9,80.4,63.9,56.7,50.6,43.5,69,38,21,29.32,29.21,5,1,5,0.00
2013-9-26,93.2,83.1,68.2,58.8,52.8,48.5,55,37,25,29.32,29.23,15,4,15,0.00
2013-9-27,88.0,82.0,69.8,70.3,66.2,59.0,71,59,51,29.35,29.26,15,6,15,0.00
2013-9-28,88.3,79.1,73.2,73.9,71.8,69.3,89,79,59,29.41,29.29,15,5,15,0.91
2013-9-29,80.6,75.4,65.8,57.2,52.5,44.0,72,47,30,29.47,29.32,8,3,8,0.91
2013-9-30,85.3,77.1,62.6,62.9,53.9,46.3,76,48,27,29.32,29.23,10,2,10,0.04
2013-10-1,88.0,81.4,72.0,70.7,65.4,57.4,94,62,36,29.38,29.26,13,4,13,0.00
2013-10-2,88.3,82.2,74.8,71.1,68.5,65.4,87,65,50,29.41,29.29,13,6,13,0.00
2013-10-3,88.7,80.2,75.6,72.2,70.7,65.6,87,74,48,29.35,29.29,14,6,14,0.00
2013-10-4,88.5,82.7,75.0,71.3,66.2,61.7,87,59,42,29.35,29.26,14,6,14,0.00
2013-10-5,76.5,63.7,54.9,70.2,52.4,38.8,85,68,46,29.50,29.35,13,6,13,0.20
2013-10-6,72.0,65.9,52.5,48.5,36.6,30.4,86,37,23,29.53,29.44,16,5,16,0.20
2013-10-8,78.1,64.1,55.4,46.0,43.9,41.1,69,51,27,29.53,29.38,9,1,9,0.00
2013-10-9,81.7,71.5,59.4,54.9,50.4,46.5,73,51,31,29.50,29.38,13,4,13,0.00
2013-10-10,82.4,74.3,62.2,59.3,55.5,51.1,80,54,35,29.47,29.32,15,5,15,0.00
2013-10-11,85.6,81.2,69.6,68.0,66.5,64.6,87,62,52,29.38,29.26,16,6,16,0.00
2013-10-12,86.5,81.6,73.6,73.8,70.1,64.0,87,68,55,29.50,29.32,9,3,9,0.00
2013-10-13,75.6,73.7,71.6,70.3,67.2,65.3,90,80,72,29.62,29.53,11,2,11,0.00
2013-10-14,73.9,72.4,70.3,72.4,70.8,68.5,96,95,94,29.50,29.35,13,4,13,0.59
2013-10-15,79.0,71.4,60.1,72.1,67.2,55.9,93,87,71,29.41,29.35,11,2,11,0.31
2013-10-17,70.0,68.0,63.0,43.0,41.1,39.4,48,38,33,29.44,29.41,0,0,0,0.67
2013-10-18,69.8,64.4,55.6,54.1,49.5,46.3,82,59,44,29.41,29.32,0,0,0,0.00
2013-10-19,63.5,57.8,45.1,40.3,35.3,31.3,74,44,33,29.62,29.50,0,0,0,0.00
2013-10-20,70.3,62.8,45.7,42.8,39.7,38.5,80,45,32,29.47,29.29,0,0,0,0.00
2013-10-21,73.4,65.3,57.2,60.4,54.3,48.3,82,68,52,29.41,29.35,0,0,0,0.00
2013-10-22,72.7,62.2,46.9,43.9,39.9,36.9,77,47,29,29.59,29.44,0,0,0,0.00
2013-10-23,78.4,63.8,52.5,48.2,44.5,40.0,77,53,26,29.53,29.44,0,0,0,0.00
2013-10-24,76.6,68.5,56.3,48.4,46.0,42.4,68,46,34,29.65,29.50,0,0,0,0.00
2013-10-25,68.2,60.4,53.2,45.0,40.1,35.9,72,49,36,29.83,29.68,0,0,0,0.00
2013-10-27,69.1,68.0,67.3,57.2,55.5,54.7,67,64,63,29.53,29.50,0,0,0,0.87
2013-10-31,73.4,73.4,73.2,39.2,39.2,38.2,29,29,28,29.26,29.18,0,0,0,0.16
2013-11-1,73.9,63.9,51.4,48.0,44.8,42.8,80,52,34,29.35,29.23,0,0,0,0.00
2013-11-2,66.7,60.4,52.5,36.4,33.7,29.4,52,38,25,29.71,29.59,0,0,0,0.00
2013-11-3,66.0,61.2,46.8,39.2,37.1,35.2,66,42,33,29.62,29.44,0,0,0,0.00
2013-11-4,61.5,58.7,54.5,60.1,54.6,42.5,95,86,59,29.53,29.41,0,0,0,0.16
2013-11-5,68.0,65.6,62.2,67.1,64.5,61.6,98,96,94,29.47,29.35,0,0,0,0.04
2013-11-6,66.0,55.2,52.2,61.4,44.7,37.7,89,69,49,29.71,29.41,0,0,0,0.04
2013-11-7,61.7,53.2,41.2,54.3,38.6,31.8,90,60,34,29.91,29.80,0,0,0,0.00
2013-11-8,66.6,61.1,47.7,46.0,38.3,34.7,87,44,33,29.77,29.59,0,0,0,0.00
2013-11-9,68.4,63.4,56.1,47.4,45.0,41.3,62,51,45,29.59,29.53,0,0,0,0.00
2013-11-10,63.3,58.6,53.8,46.9,45.4,41.1,71,62,44,29.77,29.68,0,0,0,0.00
2013-11-11,71.1,62.2,49.1,50.2,47.2,44.5,85,60,42,29.71,29.59,0,0,0,0.00
2013-11-12,54.3,49.9,43.7,45.5,27.3,15.8,72,43,28,30.03,29.80,0,0,0,0.00
2013-11-13,50.7,44.0,32.0,24.3,21.3,17.0,60,41,31,30.09,29.85,0,0,0,0.00
2013-11-14,59.2,50.3,35.1,31.0,27.8,23.8,66,43,28,29.74,29.47,0,0,0,0.00
2013-11-15,69.1,62.8,54.7,56.3,51.7,46.6,79,68,53,29.41,29.26,0,0,0,0.00
2013-11-16,74.7,70.6,65.7,67.4,62.7,60.5,88,76,64,29.29,29.12,0,0,0,0.00
2013-11-17,84.2,78.8,69.3,68.6,51.6,39.1,86,42,25,29.29,29.15,0,0,0,0.00
2013-11-18,69.4,66.4,59.4,30.9,29.2,26.6,29,25,23,29.59,29.53,0,0,0,0.00
2013-11-19,67.8,63.2,56.3,32.7,30.2,28.0,40,29,24,29.59,29.44,0,0,0,0.00
2013-11-20,64.4,59.9,48.4,44.9,38.4,29.1,54,45,37,29.44,29.29,0,0,0,0.00
2013-11-21,72.0,68.2,61.9,68.3,65.5,58.0,96,91,85,29.44,29.38,0,0,0,0.00
2013-11-22,39.0,37.7,36.3,35.5,34.3,31.9,91,87,78,29.83,29.74,0,0,0,0.12
2013-11-23,42.8,40.4,37.6,38.3,32.1,22.1,92,73,51,29.94,29.85,0,0,0,0.04
2013-11-24,36.3,35.6,34.3,22.9,19.9,16.2,60,53,44,29.97,29.77,0,0,0,0.00
2013-11-25,39.4,37.8,35.1,35.7,34.0,31.9,90,86,80,29.68,29.53,0,0,0,0.12
2013-11-26,48.6,44.6,37.0,31.8,28.5,22.7,81,54,38,29.71,29.53,0,0,0,0.12
2013-11-27,45.1,38.3,31.3,19.8,16.5,11.4,59,42,32,29.85,29.74,0,0,0,0.00
2013-11-28,52.0,44.0,30.2,26.0,23.8,19.1,70,46,34,29.85,29.77,0,0,0,0.00
2013-11-29,56.8,51.8,40.3,36.3,31.5,27.9,78,47,36,29.91,29.74,0,0,0,0.00
2013-11-30,65.3,56.6,40.1,49.6,42.3,30.9,77,60,45,29.77,29.56,0,0,0,0.00
2013-12-1,70.5,65.7,55.6,56.8,53.9,51.6,95,67,52,29.53,29.35,0,0,0,0.00
2013-12-2,67.5,57.6,46.9,52.2,46.8,42.4,89,69,43,29.23,29.12,0,0,0,0.00
2013-12-3,69.6,58.1,45.5,51.3,40.8,33.9,94,59,27,29.03,28.94,0,0,0,0.00
2013-12-4,73.8,65.9,53.6,56.5,49.9,38.8,81,58,35,29.18,29.03,0,0,0,0.00
2013-12-5,37.6,35.2,31.5,28.0,21.4,17.2,83,58,44,29.56,29.44,0,0,0,0.00
2013-12-6,30.7,28.1,27.9,27.1,22.5,22.2,86,79,79,29.74,29.68,0,0,0,0.55
2013-12-7,27.0,25.6,21.6,23.6,19.9,13.0,88,79,69,29.94,29.71,0,0,0,0.00
2013-12-8,35.2,34.1,30.2,30.9,30.0,27.1,88,85,82,29.59,29.44,0,0,0,0.04
2013-12-9,33.6,33.2,32.7,29.6,28.4,26.8,85,82,78,29.65,29.65,0,0,0,0.00
2013-12-10,36.0,28.6,21.7,22.6,17.5,11.1,71,63,53,29.91,29.74,0,0,0,0.20
2013-12-11,43.9,37.8,27.0,27.8,25.1,20.7,80,61,49,29.94,29.74,0,0,0,0.20
2013-12-12,48.0,39.4,29.5,28.0,24.7,21.8,73,57,41,30.00,29.83,0,0,0,0.00
2013-12-13,46.0,43.6,42.3,45.0,39.1,29.8,96,85,61,29.56,29.23,0,0,0,0.04
2013-12-14,46.4,42.5,37.2,41.8,33.0,23.4,90,69,54,29.71,29.41,0,0,0,0.00
2013-12-15,57.2,49.4,32.5,31.2,28.4,25.4,75,46,33,29.77,29.62,0,0,0,0.00
2013-12-16,63.9,52.9,36.7,34.2,31.8,29.2,76,47,31,29.65,29.56,0,0,0,0.00
2013-12-17,67.1,54.0,37.6,36.3,33.4,29.2,74,48,29,29.71,29.62,0,0,0,0.00
2013-12-18,67.5,57.6,41.2,41.2,38.0,34.5,81,51,34,29.65,29.44,0,0,0,0.00
2013-12-19,70.9,63.1,53.4,56.9,53.8,49.8,89,73,57,29.35,29.18,0,0,0,0.00
2013-12-20,70.2,62.2,44.1,62.3,55.4,37.5,85,78,68,29.26,29.21,0,0,0,0.00
2013-12-21,55.0,51.4,43.0,54.5,50.8,41.9,98,98,96,29.12,28.94,0,0,0,0.43
2013-12-22,42.1,37.7,33.6,25.1,23.7,21.5,69,57,49,29.77,29.47,0,0,0,0.43
2013-12-23,43.9,38.3,27.7,25.4,23.2,21.0,77,55,41,29.94,29.85,0,0,0,0.00
2013-12-24,50.7,44.5,28.8,30.8,28.1,22.5,78,53,43,29.94,29.68,0,0,0,0.00
2013-12-25,59.4,49.1,37.8,38.5,32.8,29.9,73,54,44,29.83,29.68,0,0,0,0.00
2013-12-26,51.3,46.0,34.3,31.8,31.0,28.5,81,56,47,29.85,29.74,0,0,0,0.00
2013-12-27,57.2,51.3,37.4,36.4,33.1,30.1,84,51,37,29.85,29.74,0,0,0,0.00
2013-12-28,59.7,54.0,38.5,41.4,35.1,31.7,85,50,37,29.65,29.38,0,0,0,0.00
2013-12-29,52.5,43.4,38.7,39.8,30.0,23.5,71,59,54,29.68,29.44,0,0,0,0.00
2013-12-30,42.8,39.2,31.5,19.0,16.8,13.1,47,40,38,29.77,29.68,0,0,0,0.00
2013-12-31,52.5,46.9,33.8,24.4,22.6,18.3,64,38,31,29.83,29.62,0,0,0,0.00
2014-1-1,64.9,58.3,40.6,46.9,38.2,27.8,65,47,36,29.47,29.29,0,0,0,0.00
2014-1-2,41.7,36.9,26.8,17.1,15.0,11.4,52,40,36,29.88,29.83,0,0,0,0.00